Terminal Aerodrome Forecast
Issued by NWS North Platte, NE

Home | Current Version | Previous Version | Graphics & Text | Print | Product List | Glossary On
Versions: 1 2 3 4 5 6 7 8 9 10 11 12 13 14 15 16 17 18
000
FTUS43 KLBF 232300
TAFVTN
TAF
KVTN 232320Z 2400/2424 14012KT P6SM SKC
     FM240600 16014G21KT P6SM SCT250
     FM241500 19016G23KT P6SM BKN250=

USA.gov is the U.S. government's official web portal to all federal, state and local government web resources and services.